This is the latest recevied weather packets stored in our database for station/object DC4AT. If no packets are shown the sender has not sent any weather packets the latest 10 day(s).
| Time | Temp. | Humidity | Pressure | Rain* | Wind** | Luminosity | Snow |
|---|---|---|---|---|---|---|---|
| 1777994013 | 15.56° C | 83% | 1007.6 hPa | 0 mm | - | 118 W/m² | - |
| 1777993413 | 16.11° C | 83% | 1007.6 hPa | 0 mm | - | 121 W/m² | - |
| 1777992813 | 16.11° C | 82% | 1007.5 hPa | 0 mm | - | 160 W/m² | - |
| 1777992213 | 16.11° C | 81% | 1007.6 hPa | 0 mm | - | 130 W/m² | - |
| 1777991613 | 16.67° C | 80% | 1007.6 hPa | 0 mm | - | 142 W/m² | - |
| 1777991013 | 16.67° C | 80% | 1007.7 hPa | 0 mm | - | 176 W/m² | - |
| 1777990413 | 16.67° C | 80% | 1007.6 hPa | 0 mm | - | 176 W/m² | - |
| 1777989813 | 17.22° C | 80% | 1007.9 hPa | 0 mm | - | 195 W/m² | - |
| 1777989213 | 17.22° C | 79% | 1007.9 hPa | 0 mm | - | 229 W/m² | - |
| 1777988613 | 17.22° C | 78% | 1008 hPa | 0 mm | - | 239 W/m² | - |
| 1777988013 | 17.78° C | 78% | 1008 hPa | 0 mm | - | 220 W/m² | - |
| 1777987413 | 17.78° C | 75% | 1008 hPa | 0 mm | - | 202 W/m² | - |
| 1777986813 | 17.78° C | 75% | 1007.9 hPa | 0 mm | - | 250 W/m² | - |
| 1777986213 | 17.78° C | 73% | 1008.1 hPa | 0 mm | - | 552 W/m² | - |
| 1777985613 | 18.33° C | 72% | 1008.1 hPa | 0 mm | - | 397 W/m² | - |
| 1777985013 | 17.78° C | 75% | 1008.2 hPa | 0 mm | - | 663 W/m² | - |
| 1777984413 | 17.78° C | 76% | 1008.4 hPa | 0 mm | - | 555 W/m² | - |
| 1777983813 | 17.78° C | 74% | 1008.4 hPa | 0 mm | - | 359 W/m² | - |
| 1777983213 | 17.22° C | 75% | 1008.5 hPa | 0 mm | - | 476 W/m² | - |
| 1777982613 | 17.22° C | 76% | 1008.6 hPa | 0 mm | - | 313 W/m² | - |
| 1777982013 | 17.22° C | 77% | 1008.7 hPa | 0 mm | - | 308 W/m² | - |
| 1777981413 | 17.22° C | 77% | 1008.6 hPa | 0 mm | - | 624 W/m² | - |
| 1777980813 | 17.22° C | 80% | 1008.8 hPa | 0 mm | - | 413 W/m² | - |
| 1777980213 | 16.67° C | 78% | 1008.9 hPa | 0 mm | - | 350 W/m² | - |
| 1777979613 | 16.67° C | 78% | 1008.9 hPa | 0 mm | - | 390 W/m² | - |
* Rain latest hour (hover to see other rain measurements)
** Current wind speed in m/s (hover to see current wind gust speed)